When you browse on this site, cookies collect data to enhance your experience and personalize the content and advertising you see.
Visit our Privacy Policy to learn more. By continuing to use the site, you agree to this use of cookies and data.
  • In Schweiz
  • Länderverzeichnis
  • Für 7 Tage
  • Wassertemperatur
  • Satellitenkarten
  • Wetterkarte
  • Widgets
  • user-avatar
    Anmelden

    Stündliche Wetter Murzinki

    Heute, 19 Mai, Sonntag

    Zeit Temperatur Niederschläge Wind Luftdruck Luftfeuchtigkeit
    00:00 +9°C° 0 mm 2 m/S 751 mmHg 73%
    01:00 +9°C° 0 mm 2 m/S 751 mmHg 71%
    02:00 +8°C° 0 mm 2 m/S 751 mmHg 70%
    03:00 +8°C° 0 mm 2 m/S 750 mmHg 67%
    04:00 +9°C° 0 mm 2 m/S 751 mmHg 70%
    05:00 +9°C° 0 mm 3 m/S 751 mmHg 73%
    06:00 +9°C° 0 mm 3 m/S 751 mmHg 76%
    07:00 +11°C° 0 mm 4 m/S 751 mmHg 70%
    08:00 +12°C° 0 mm 4 m/S 751 mmHg 65%
    09:00 +14°C° 0 mm 4 m/S 751 mmHg 59%
    10:00 +14°C° 0 mm 4 m/S 751 mmHg 56%
    11:00 +15°C° 0 mm 4 m/S 751 mmHg 53%
    12:00 +15°C° 0 mm 4 m/S 751 mmHg 50%
    13:00 +17°C° 0 mm 4 m/S 751 mmHg 49%
    14:00 +17°C° 0 mm 4 m/S 751 mmHg 48%
    15:00 +16°C° 0 mm 5 m/S 751 mmHg 48%
    16:00 +17°C° 0 mm 4 m/S 751 mmHg 51%
    17:00 +15°C° 0 mm 4 m/S 751 mmHg 55%
    18:00 +16°C° 0 mm 3 m/S 752 mmHg 59%
    19:00 +13°C° 0 mm 3 m/S 752 mmHg 62%
    20:00 +11°C° 0 mm 3 m/S 752 mmHg 65%
    21:00 +9°C° 0 mm 3 m/S 753 mmHg 68%
    22:00 +8°C° 0 mm 2 m/S 753 mmHg 69%
    23:00 +7°C° 0 mm 2 m/S 753 mmHg 70%

    Morgen, 20 Mai, Montag

    Zeit Temperatur Niederschläge Wind Luftdruck Luftfeuchtigkeit
    00:00 +6°C° 0 mm 2 m/S 754 mmHg 71%
    01:00 +6°C° 0 mm 2 m/S 754 mmHg 72%
    02:00 +5°C° 0 mm 2 m/S 754 mmHg 73%
    03:00 +6°C° 0 mm 1 m/S 755 mmHg 74%
    04:00 +5°C° 0 mm 2 m/S 755 mmHg 73%
    05:00 +6°C° 0 mm 2 m/S 755 mmHg 72%
    06:00 +6°C° 0 mm 2 m/S 755 mmHg 71%
    07:00 +8°C° 0 mm 2 m/S 755 mmHg 64%
    08:00 +10°C° 0 mm 3 m/S 756 mmHg 57%
    09:00 +12°C° 0 mm 3 m/S 756 mmHg 50%
    10:00 +13°C° 0 mm 3 m/S 756 mmHg 48%
    11:00 +14°C° 0 mm 3 m/S 755 mmHg 45%
    12:00 +16°C° 0 mm 3 m/S 755 mmHg 43%
    13:00 +15°C° 0 mm 4 m/S 755 mmHg 43%
    14:00 +17°C° 0 mm 4 m/S 755 mmHg 42%
    15:00 +17°C° 0 mm 4 m/S 755 mmHg 42%
    16:00 +17°C° 0 mm 3 m/S 755 mmHg 47%
    17:00 +17°C° 0 mm 3 m/S 755 mmHg 51%
    18:00 +17°C° 0 mm 2 m/S 755 mmHg 55%
    19:00 +15°C° 0 mm 2 m/S 755 mmHg 59%
    20:00 +13°C° 0 mm 2 m/S 755 mmHg 63%
    21:00 +10°C° 0 mm 2 m/S 755 mmHg 66%
    22:00 +10°C° 0 mm 1 m/S 755 mmHg 68%
    23:00 +9°C° 0 mm 1 m/S 756 mmHg 70%

    übermorgen, 21 Mai, Dienstag

    Zeit Temperatur Niederschläge Wind Luftdruck Luftfeuchtigkeit
    00:00 +8°C° 0 mm 1 m/S 756 mmHg 72%
    01:00 +8°C° 0 mm 1 m/S 756 mmHg 72%
    02:00 +8°C° 0 mm 1 m/S 756 mmHg 72%
    03:00 +8°C° 0 mm 1 m/S 757 mmHg 72%
    04:00 +9°C° 0 mm 1 m/S 756 mmHg 71%
    05:00 +10°C° 0 mm 1 m/S 756 mmHg 70%
    06:00 +11°C° 0 mm 1 m/S 756 mmHg 70%
    07:00 +13°C° 0 mm 1 m/S 756 mmHg 64%
    08:00 +15°C° 0 mm 2 m/S 756 mmHg 58%
    09:00 +17°C° 0 mm 2 m/S 756 mmHg 52%
    10:00 +18°C° 0 mm 2 m/S 756 mmHg 51%
    11:00 +19°C° 0 mm 3 m/S 756 mmHg 50%
    12:00 +20°C° 0 mm 3 m/S 755 mmHg 49%
    13:00 +20°C° 0 mm 3 m/S 755 mmHg 50%
    14:00 +21°C° 0 mm 3 m/S 754 mmHg 52%
    15:00 +22°C° 0 mm 4 m/S 754 mmHg 53%
    16:00 +21°C° 0 mm 3 m/S 754 mmHg 57%
    17:00 +21°C° 0 mm 3 m/S 753 mmHg 61%
    18:00 +21°C° 0 mm 3 m/S 753 mmHg 65%
    19:00 +19°C° 0 mm 3 m/S 752 mmHg 71%
    20:00 +17°C° 0 mm 3 m/S 752 mmHg 77%
    21:00 +16°C° 0 mm 3 m/S 752 mmHg 83%
    22:00 +14°C° 0 mm 4 m/S 752 mmHg 83%
    23:00 +14°C° 0 mm 4 m/S 752 mmHg 84%

    22 Mai, Mittwoch

    Zeit Temperatur Niederschläge Wind Luftdruck Luftfeuchtigkeit
    00:00 +14°C° 0 mm 4 m/S 752 mmHg 84%
    01:00 +13°C° 0 mm 4 m/S 752 mmHg 83%
    02:00 +13°C° 0 mm 4 m/S 752 mmHg 82%
    03:00 +12°C° 0 mm 4 m/S 752 mmHg 81%
    04:00 +13°C° 0 mm 3 m/S 751 mmHg 80%
    05:00 +13°C° 0 mm 3 m/S 751 mmHg 79%
    06:00 +13°C° 0 mm 3 m/S 751 mmHg 78%
    07:00 +16°C° 0 mm 3 m/S 751 mmHg 74%
    08:00 +17°C° 0 mm 4 m/S 751 mmHg 69%
    09:00 +19°C° 0 mm 4 m/S 750 mmHg 65%
    10:00 +20°C° 0 mm 4 m/S 750 mmHg 61%
    11:00 +21°C° 0 mm 4 m/S 750 mmHg 57%
    12:00 +22°C° 0 mm 4 m/S 749 mmHg 53%
    13:00 +22°C° 0 mm 4 m/S 749 mmHg 53%
    14:00 +23°C° 0 mm 4 m/S 749 mmHg 53%
    15:00 +23°C° 0 mm 4 m/S 748 mmHg 53%
    16:00 +23°C° 0 mm 4 m/S 748 mmHg 57%
    17:00 +24°C° 0 mm 3 m/S 748 mmHg 62%
    18:00 +22°C° 0 mm 3 m/S 747 mmHg 66%
    19:00 +20°C° 0 mm 3 m/S 747 mmHg 72%
    20:00 +19°C° 0 mm 3 m/S 747 mmHg 79%
    21:00 +17°C° 0 mm 3 m/S 747 mmHg 85%
    22:00 +16°C° 0 mm 3 m/S 747 mmHg 86%
    23:00 +16°C° 0 mm 3 m/S 747 mmHg 87%

    23 Mai, Donnerstag

    Zeit Temperatur Niederschläge Wind Luftdruck Luftfeuchtigkeit
    00:00 +14°C° 0 mm 3 m/S 746 mmHg 89%
    01:00 +14°C° 0 mm 3 m/S 746 mmHg 89%
    02:00 +14°C° 0 mm 3 m/S 746 mmHg 89%
    03:00 +13°C° 0 mm 3 m/S 746 mmHg 89%
    04:00 +14°C° 0 mm 4 m/S 745 mmHg 86%
    05:00 +14°C° 0 mm 4 m/S 745 mmHg 83%
    06:00 +15°C° 0 mm 4 m/S 745 mmHg 81%
    07:00 +17°C° 0 mm 4 m/S 745 mmHg 76%
    08:00 +19°C° 0 mm 4 m/S 745 mmHg 71%
    09:00 +21°C° 0 mm 4 m/S 744 mmHg 66%
    10:00 +22°C° 0.1 mm 5 m/S 744 mmHg 63%
    11:00 +23°C° 0.1 mm 5 m/S 744 mmHg 61%
    12:00 +23°C° 0.1 mm 5 m/S 744 mmHg 58%
    13:00 +25°C° 0.5 mm 5 m/S 743 mmHg 60%
    14:00 +25°C° 0.5 mm 5 m/S 743 mmHg 61%
    15:00 +25°C° 0.5 mm 5 m/S 743 mmHg 62%
    16:00 +22°C° 1.2 mm 4 m/S 743 mmHg 69%
    17:00 +21°C° 1.2 mm 4 m/S 743 mmHg 75%
    18:00 +20°C° 1.2 mm 3 m/S 743 mmHg 82%
    19:00 +19°C° 0.9 mm 2 m/S 743 mmHg 86%
    20:00 +18°C° 0.9 mm 2 m/S 743 mmHg 90%
    21:00 +18°C° 0.9 mm 1 m/S 743 mmHg 94%
    22:00 +17°C° 0.4 mm 2 m/S 744 mmHg 95%
    23:00 +16°C° 0.4 mm 2 m/S 744 mmHg 96%

    24 Mai, Freitag

    Zeit Temperatur Niederschläge Wind Luftdruck Luftfeuchtigkeit
    00:00 +16°C° 0.4 mm 2 m/S 744 mmHg 96%
    01:00 +14°C° 0.1 mm 3 m/S 744 mmHg 95%
    02:00 +13°C° 0.1 mm 4 m/S 744 mmHg 94%
    03:00 +12°C° 0.1 mm 4 m/S 745 mmHg 93%
    04:00 +11°C° 0 mm 4 m/S 745 mmHg 92%
    05:00 +11°C° 0 mm 4 m/S 745 mmHg 91%
    06:00 +10°C° 0 mm 4 m/S 746 mmHg 90%
    07:00 +11°C° 0 mm 4 m/S 746 mmHg 85%
    08:00 +13°C° 0 mm 4 m/S 746 mmHg 80%
    09:00 +14°C° 0 mm 4 m/S 747 mmHg 75%
    10:00 +15°C° 0 mm 4 m/S 746 mmHg 71%
    11:00 +18°C° 0 mm 4 m/S 746 mmHg 66%
    12:00 +19°C° 0 mm 4 m/S 746 mmHg 62%
    13:00 +20°C° 0 mm 4 m/S 746 mmHg 61%
    14:00 +20°C° 0 mm 3 m/S 746 mmHg 61%
    15:00 +20°C° 0 mm 3 m/S 746 mmHg 60%
    16:00 +20°C° 0 mm 3 m/S 746 mmHg 65%
    17:00 +19°C° 0 mm 3 m/S 746 mmHg 69%
    18:00 +18°C° 0 mm 2 m/S 745 mmHg 74%
    19:00 +18°C° 0 mm 3 m/S 745 mmHg 75%
    20:00 +17°C° 0 mm 3 m/S 746 mmHg 77%
    21:00 +16°C° 0 mm 3 m/S 746 mmHg 79%
    22:00 +16°C° 0 mm 3 m/S 745 mmHg 80%
    23:00 +14°C° 0 mm 3 m/S 745 mmHg 82%
    Mehr zeigen